Aviation Digital Data Service (ADDS)

Output produced by METARs form (0335 UTC 19 July 2018)
found at http://www.aviationweather.gov/adds/metars/
 
OPLA 190325Z 11004KT 4000 FU FEW100 30/27 Q1001 A29.54
TAF OPLA 182145Z 1900/2006 13008KT 4000 FU SCT040 SCT100 TN33/1910Z TN 27/2000Z 
     TEMPO 1900/1904 36015G35KT 1500 TSRA FEW030CB SCT040 BKN100 
     TEMPO 1912/1915 12010G25KT 2000 TSRA FEW030CB SCT040 BKN100 
     TEMPO 1922/200Z 03015G35KT 1500 TSRA FEW030CB SCT040 BKN100
       
TAF OPBW 182145Z 1900/1918 05010KT 3500 FU FEW040 SCT120 TN28/1901Z TX39/1910Z 
     PROB30 
     TEMPO 1900/1904 36020KT 2000 TSRA FEW030CB SCT040 BKN100
       
TAF OPBW 182145Z 1900/1918 05010KT 3500 FU FEW040 SCT120 TN28/1901Z TX39/1910Z 
     PROB30 
     TEMPO 1900/1904 36020KT 2000 TSRA FEW030CB SCT040 BKN100
       
TAF OPDG 182145Z 1900/1918 36010KT 5000 FU SCT040 SCT120 TN28/1901Z TX39/1910Z 
     PROB30 
     TEMPO 1900/1904 36020KT 2000 TSRA FEW030CB SCT040 BKN100
       
TAF OPGD 182130Z 1900/1924 18005G15KT 5000 HZ BKN025 
     TEMPO 1900/1904 VRB03KT 3000 HZ BKN020
       
OPKC 190325Z 26009KT 5000 HZ SCT020 BKN100 30/24 Q1000 NOSIG
TAF OPKC 190330Z 1906/1915 23008G18KT 6000 SCT020 BKN100
       
OPLA 190325Z 11004KT 4000 FU FEW100 30/27 Q1001 A29.54
TAF OPLA 182145Z 1900/2006 13008KT 4000 FU SCT040 SCT100 TN33/1910Z TN 27/2000Z 
     TEMPO 1900/1904 36015G35KT 1500 TSRA FEW030CB SCT040 BKN100 
     TEMPO 1912/1915 12010G25KT 2000 TSRA FEW030CB SCT040 BKN100 
     TEMPO 1922/200Z 03015G35KT 1500 TSRA FEW030CB SCT040 BKN100
       
OPMT 190300Z 00000KT 4000 FU SCT100 33/27 Q0998 NOSIG
TAF OPMT 182145Z 1900/1918 36010KT 4000 FU SCT040 SCT120 TN29/1901Z TX39/1910Z 
     PROB30 
     TEMPO 1900/1904 36020KT 2000 TSRA FEW030CB SCT040 BKN100
       
OPNH 190300Z 18008KT 5000M HZ SCT035 SCT100 31/25 Q0997 NOSIG
TAF OPNH 190330Z 1906/1915 18005G15KT 5000 HZ SCT030 SCT100 
     TEMPO 1910/1914 05015G25KT 2000 DS/TSRA FEW025CB SCT030 BKN100
       
OPPS 190300Z 13008KT 4000 HZ FEW015 SCT040 BKN100 28/24 Q1002
TAF OPPS 182205Z 1900/2006 05015G20KT 4000 HZ FEW030TCU SCT040 SCT100 
     TEMPO 1905/1909 SCT040 SCT100
       
TAF OPRK 182145Z 1900/1918 05010KT 4000 FU FEW040 SCT120 TN29/1901Z TX41/1910Z 
     PROB30 
     TEMPO 1900/1904 36020KT 2000 TSRA FEW030CB SCT040 BKN100
       
OPRN 190330Z 13012KT 3000 VCTS FEW030TCU SCT040 BKN100 30/25 Q1003 TEMPO TS FEW030CB SCT040 BKN100 RMK A2964
TAF OPRN 182130Z 1900/2006 13010KT 5000 HZ SCT040 BKN100 
     TEMPO 1900/1906 VCTS FEW030TCU SCT040 SCT100 
     BECMG 1920/1922 TSRA FEW025CB SCT035 BKN100
       
OPSK 190300Z 13008KT 4000 HZ BKN200 33/26 QNH 0996 NOSIG
TAF OPSK 182130Z 1900/1924 18005G15KT 4000 HZ FEW030 SCT100 
     FM191500 18008G18KT 4000 HZ FEW040 BKN100
       
OPST 190300Z 05006KT 5000 FU FEW100 29/24 Q1001 NOSIG RH74
TAF OPBW 182145Z 1900/1918 05010KT 3500 FU FEW040 SCT120 TN28/1901Z TX39/1910Z 
     PROB30 
     TEMPO 1900/1904 36020KT 2000 TSRA FEW030CB SCT040 BKN100
       
TAF OPDG 182145Z 1900/1918 36010KT 5000 FU SCT040 SCT120 TN28/1901Z TX39/1910Z 
     PROB30 
     TEMPO 1900/1904 36020KT 2000 TSRA FEW030CB SCT040 BKN100
       
TAF OPGD 182130Z 1900/1924 18005G15KT 5000 HZ BKN025 
     TEMPO 1900/1904 VRB03KT 3000 HZ BKN020
       
OPKC 190325Z 26009KT 5000 HZ SCT020 BKN100 30/24 Q1000 NOSIG
TAF OPKC 190330Z 1906/1915 23008G18KT 6000 SCT020 BKN100
       
OPLA 190325Z 11004KT 4000 FU FEW100 30/27 Q1001 A29.54
TAF OPLA 182145Z 1900/2006 13008KT 4000 FU SCT040 SCT100 TN33/1910Z TN 27/2000Z 
     TEMPO 1900/1904 36015G35KT 1500 TSRA FEW030CB SCT040 BKN100 
     TEMPO 1912/1915 12010G25KT 2000 TSRA FEW030CB SCT040 BKN100 
     TEMPO 1922/200Z 03015G35KT 1500 TSRA FEW030CB SCT040 BKN100
       
OPMT 190300Z 00000KT 4000 FU SCT100 33/27 Q0998 NOSIG
TAF OPMT 182145Z 1900/1918 36010KT 4000 FU SCT040 SCT120 TN29/1901Z TX39/1910Z 
     PROB30 
     TEMPO 1900/1904 36020KT 2000 TSRA FEW030CB SCT040 BKN100
       
OPNH 190300Z 18008KT 5000M HZ SCT035 SCT100 31/25 Q0997 NOSIG
TAF OPNH 190330Z 1906/1915 18005G15KT 5000 HZ SCT030 SCT100 
     TEMPO 1910/1914 05015G25KT 2000 DS/TSRA FEW025CB SCT030 BKN100
       
OPPS 190300Z 13008KT 4000 HZ FEW015 SCT040 BKN100 28/24 Q1002
TAF OPPS 182205Z 1900/2006 05015G20KT 4000 HZ FEW030TCU SCT040 SCT100 
     TEMPO 1905/1909 SCT040 SCT100
       
TAF OPRK 182145Z 1900/1918 05010KT 4000 FU FEW040 SCT120 TN29/1901Z TX41/1910Z 
     PROB30 
     TEMPO 1900/1904 36020KT 2000 TSRA FEW030CB SCT040 BKN100
       
OPRN 190330Z 13012KT 3000 VCTS FEW030TCU SCT040 BKN100 30/25 Q1003 TEMPO TS FEW030CB SCT040 BKN100 RMK A2964
TAF OPRN 182130Z 1900/2006 13010KT 5000 HZ SCT040 BKN100 
     TEMPO 1900/1906 VCTS FEW030TCU SCT040 SCT100 
     BECMG 1920/1922 TSRA FEW025CB SCT035 BKN100
       
OPSK 190300Z 13008KT 4000 HZ BKN200 33/26 QNH 0996 NOSIG
TAF OPSK 182130Z 1900/1924 18005G15KT 4000 HZ FEW030 SCT100 
     FM191500 18008G18KT 4000 HZ FEW040 BKN100
       
OPST 190300Z 05006KT 5000 FU FEW100 29/24 Q1001 NOSIG RH74
OPRN 190330Z 13012KT 3000 VCTS FEW030TCU SCT040 BKN100 30/25 Q1003 TEMPO TS FEW030CB SCT040 BKN100 RMK A2964
TAF OPRN 182130Z 1900/2006 13010KT 5000 HZ SCT040 BKN100 
     TEMPO 1900/1906 VCTS FEW030TCU SCT040 SCT100 
     BECMG 1920/1922 TSRA FEW025CB SCT035 BKN100
       
TAF OPBW 182145Z 1900/1918 05010KT 3500 FU FEW040 SCT120 TN28/1901Z TX39/1910Z 
     PROB30 
     TEMPO 1900/1904 36020KT 2000 TSRA FEW030CB SCT040 BKN100
       
TAF OPDG 182145Z 1900/1918 36010KT 5000 FU SCT040 SCT120 TN28/1901Z TX39/1910Z 
     PROB30 
     TEMPO 1900/1904 36020KT 2000 TSRA FEW030CB SCT040 BKN100
       
TAF OPGD 182130Z 1900/1924 18005G15KT 5000 HZ BKN025 
     TEMPO 1900/1904 VRB03KT 3000 HZ BKN020
       
OPKC 190325Z 26009KT 5000 HZ SCT020 BKN100 30/24 Q1000 NOSIG
TAF OPKC 190330Z 1906/1915 23008G18KT 6000 SCT020 BKN100
       
OPLA 190325Z 11004KT 4000 FU FEW100 30/27 Q1001 A29.54
TAF OPLA 182145Z 1900/2006 13008KT 4000 FU SCT040 SCT100 TN33/1910Z TN 27/2000Z 
     TEMPO 1900/1904 36015G35KT 1500 TSRA FEW030CB SCT040 BKN100 
     TEMPO 1912/1915 12010G25KT 2000 TSRA FEW030CB SCT040 BKN100 
     TEMPO 1922/200Z 03015G35KT 1500 TSRA FEW030CB SCT040 BKN100
       
OPMT 190300Z 00000KT 4000 FU SCT100 33/27 Q0998 NOSIG
TAF OPMT 182145Z 1900/1918 36010KT 4000 FU SCT040 SCT120 TN29/1901Z TX39/1910Z 
     PROB30 
     TEMPO 1900/1904 36020KT 2000 TSRA FEW030CB SCT040 BKN100
       
OPNH 190300Z 18008KT 5000M HZ SCT035 SCT100 31/25 Q0997 NOSIG
TAF OPNH 190330Z 1906/1915 18005G15KT 5000 HZ SCT030 SCT100 
     TEMPO 1910/1914 05015G25KT 2000 DS/TSRA FEW025CB SCT030 BKN100
       
OPPS 190300Z 13008KT 4000 HZ FEW015 SCT040 BKN100 28/24 Q1002
TAF OPPS 182205Z 1900/2006 05015G20KT 4000 HZ FEW030TCU SCT040 SCT100 
     TEMPO 1905/1909 SCT040 SCT100
       
TAF OPRK 182145Z 1900/1918 05010KT 4000 FU FEW040 SCT120 TN29/1901Z TX41/1910Z 
     PROB30 
     TEMPO 1900/1904 36020KT 2000 TSRA FEW030CB SCT040 BKN100
       
OPRN 190330Z 13012KT 3000 VCTS FEW030TCU SCT040 BKN100 30/25 Q1003 TEMPO TS FEW030CB SCT040 BKN100 RMK A2964
TAF OPRN 182130Z 1900/2006 13010KT 5000 HZ SCT040 BKN100 
     TEMPO 1900/1906 VCTS FEW030TCU SCT040 SCT100 
     BECMG 1920/1922 TSRA FEW025CB SCT035 BKN100
       
OPSK 190300Z 13008KT 4000 HZ BKN200 33/26 QNH 0996 NOSIG
TAF OPSK 182130Z 1900/1924 18005G15KT 4000 HZ FEW030 SCT100 
     FM191500 18008G18KT 4000 HZ FEW040 BKN100
       
OPST 190300Z 05006KT 5000 FU FEW100 29/24 Q1001 NOSIG RH74
TAF OPBW 182145Z 1900/1918 05010KT 3500 FU FEW040 SCT120 TN28/1901Z TX39/1910Z 
     PROB30 
     TEMPO 1900/1904 36020KT 2000 TSRA FEW030CB SCT040 BKN100
       
TAF OPDG 182145Z 1900/1918 36010KT 5000 FU SCT040 SCT120 TN28/1901Z TX39/1910Z 
     PROB30 
     TEMPO 1900/1904 36020KT 2000 TSRA FEW030CB SCT040 BKN100
       
TAF OPGD 182130Z 1900/1924 18005G15KT 5000 HZ BKN025 
     TEMPO 1900/1904 VRB03KT 3000 HZ BKN020
       
OPKC 190325Z 26009KT 5000 HZ SCT020 BKN100 30/24 Q1000 NOSIG
TAF OPKC 190330Z 1906/1915 23008G18KT 6000 SCT020 BKN100
       
OPLA 190325Z 11004KT 4000 FU FEW100 30/27 Q1001 A29.54
TAF OPLA 182145Z 1900/2006 13008KT 4000 FU SCT040 SCT100 TN33/1910Z TN 27/2000Z 
     TEMPO 1900/1904 36015G35KT 1500 TSRA FEW030CB SCT040 BKN100 
     TEMPO 1912/1915 12010G25KT 2000 TSRA FEW030CB SCT040 BKN100 
     TEMPO 1922/200Z 03015G35KT 1500 TSRA FEW030CB SCT040 BKN100
       
OPMT 190300Z 00000KT 4000 FU SCT100 33/27 Q0998 NOSIG
TAF OPMT 182145Z 1900/1918 36010KT 4000 FU SCT040 SCT120 TN29/1901Z TX39/1910Z 
     PROB30 
     TEMPO 1900/1904 36020KT 2000 TSRA FEW030CB SCT040 BKN100
       
OPNH 190300Z 18008KT 5000M HZ SCT035 SCT100 31/25 Q0997 NOSIG
TAF OPNH 190330Z 1906/1915 18005G15KT 5000 HZ SCT030 SCT100 
     TEMPO 1910/1914 05015G25KT 2000 DS/TSRA FEW025CB SCT030 BKN100
       
OPPS 190300Z 13008KT 4000 HZ FEW015 SCT040 BKN100 28/24 Q1002
TAF OPPS 182205Z 1900/2006 05015G20KT 4000 HZ FEW030TCU SCT040 SCT100 
     TEMPO 1905/1909 SCT040 SCT100
       
TAF OPRK 182145Z 1900/1918 05010KT 4000 FU FEW040 SCT120 TN29/1901Z TX41/1910Z 
     PROB30 
     TEMPO 1900/1904 36020KT 2000 TSRA FEW030CB SCT040 BKN100
       
OPRN 190330Z 13012KT 3000 VCTS FEW030TCU SCT040 BKN100 30/25 Q1003 TEMPO TS FEW030CB SCT040 BKN100 RMK A2964
TAF OPRN 182130Z 1900/2006 13010KT 5000 HZ SCT040 BKN100 
     TEMPO 1900/1906 VCTS FEW030TCU SCT040 SCT100 
     BECMG 1920/1922 TSRA FEW025CB SCT035 BKN100
       
OPSK 190300Z 13008KT 4000 HZ BKN200 33/26 QNH 0996 NOSIG
TAF OPSK 182130Z 1900/1924 18005G15KT 4000 HZ FEW030 SCT100 
     FM191500 18008G18KT 4000 HZ FEW040 BKN100
       
OPST 190300Z 05006KT 5000 FU FEW100 29/24 Q1001 NOSIG RH74
TAF OPDG 182145Z 1900/1918 36010KT 5000 FU SCT040 SCT120 TN28/1901Z TX39/1910Z 
     PROB30 
     TEMPO 1900/1904 36020KT 2000 TSRA FEW030CB SCT040 BKN100
       
TAF OPGD 182130Z 1900/1924 18005G15KT 5000 HZ BKN025 
     TEMPO 1900/1904 VRB03KT 3000 HZ BKN020
       
OPKC 190325Z 26009KT 5000 HZ SCT020 BKN100 30/24 Q1000 NOSIG
TAF OPKC 190330Z 1906/1915 23008G18KT 6000 SCT020 BKN100
       
OPMT 190300Z 00000KT 4000 FU SCT100 33/27 Q0998 NOSIG
TAF OPMT 182145Z 1900/1918 36010KT 4000 FU SCT040 SCT120 TN29/1901Z TX39/1910Z 
     PROB30 
     TEMPO 1900/1904 36020KT 2000 TSRA FEW030CB SCT040 BKN100
       
OPNH 190300Z 18008KT 5000M HZ SCT035 SCT100 31/25 Q0997 NOSIG
TAF OPNH 190330Z 1906/1915 18005G15KT 5000 HZ SCT030 SCT100 
     TEMPO 1910/1914 05015G25KT 2000 DS/TSRA FEW025CB SCT030 BKN100
       
OPPS 190300Z 13008KT 4000 HZ FEW015 SCT040 BKN100 28/24 Q1002
TAF OPPS 182205Z 1900/2006 05015G20KT 4000 HZ FEW030TCU SCT040 SCT100 
     TEMPO 1905/1909 SCT040 SCT100
       
TAF OPRK 182145Z 1900/1918 05010KT 4000 FU FEW040 SCT120 TN29/1901Z TX41/1910Z 
     PROB30 
     TEMPO 1900/1904 36020KT 2000 TSRA FEW030CB SCT040 BKN100
       
OPSK 190300Z 13008KT 4000 HZ BKN200 33/26 QNH 0996 NOSIG
TAF OPSK 182130Z 1900/1924 18005G15KT 4000 HZ FEW030 SCT100 
     FM191500 18008G18KT 4000 HZ FEW040 BKN100